Athens Eleftherios, Greece

9:08 AM EEST on September 30, 2016 (GMT +0300)
Eleftherios Venizelos International

Weather History for LGAV - April, 2013

Change the Weather History Date:

Monday, April 22, 2013

  Actual Average (LGEL) Record (LGEL)
Temperature  
Mean Temperature 56 °F -  
Max Temperature 69 °F 67 °F 84 °F (2008)
Min Temperature 42 °F 51 °F 43 °F (2015)
Degree Days  
Heating Degree Days 10    
Growing Degree Days 6 (Base 50)    
Moisture  
Dew Point 40 °F    
Average Humidity 52    
Maximum Humidity 82    
Minimum Humidity 31    
Precipitation  
Precipitation 0.00 in - - ()
Sea Level Pressure  
Sea Level Pressure 30.04 in    
Wind  
Wind Speed 5 mph ()    
Max Wind Speed 16 mph    
Max Gust Speed -    
Visibility 6.2 miles    
Events      
Averages and records for this station are not official NWS values.
T = Trace of Precipitation, MM = Missing Value Source: Averaged Metar Reports

Daily Weather History Graph

Daily Weather History Graph

Search for Another Location

Airport or City:

Trip Planner

Search our weather history database for the weather conditions in past years. The results will help you decide how hot, cold, wet, or windy it might be!

Date:

Astronomy

Apr. 22, 2013 Rise Set
Actual Time 6:39 AM EEST 8:06 PM EEST
Civil Twilight 6:11 AM EEST 8:34 PM EEST
Nautical Twilight 5:38 AM EEST 9:07 PM EEST
Astronomical Twilight 5:03 AM EEST 9:42 PM EEST
Moon 4:38 PM EEST (4/22) 4:20 AM EEST (4/22)
Length of Visible Light 14h 22m
Length of Day
13h 27m
Waxing Gibbous, 85% of the Moon is Illuminated
Apr 22
Waxing Gibbous
Apr 25
Full
May 2
Last Quarter
May 10
New
May 18
First Quarter

Hourly Weather History & Observations

Time (EEST) Temp. Windchill Dew Point Humidity Pressure Visibility Wind Dir Wind Speed Gust Speed Precip Events Conditions
12:20 AM 50.0 °F - 39.2 °F 66% 30.01 in 6.2 mi Variable 3.5 mph - N/A   Partly Cloudy
12:50 AM 51.8 °F - 41.0 °F 67% 30.01 in 6.2 mi Variable 3.5 mph - N/A   Partly Cloudy
1:20 AM 48.2 °F - 39.2 °F 71% 30.01 in 6.2 mi West 4.6 mph - N/A   Partly Cloudy
1:50 AM 50.0 °F - 41.0 °F 71% 30.01 in - WNW 3.5 mph - N/A   Clear
2:20 AM 46.4 °F - 37.4 °F 71% 30.01 in - WNW 2.3 mph - N/A   Clear
2:50 AM 48.2 °F - 42.8 °F 82% 30.01 in - WNW 3.5 mph - N/A   Clear
3:20 AM 44.6 °F 42.2 °F 39.2 °F 81% 30.01 in - WNW 4.6 mph - N/A   Clear
3:50 AM 48.2 °F - 41.0 °F 76% 30.01 in - Variable 1.2 mph - N/A   Clear
4:20 AM 46.4 °F - 39.2 °F 76% 30.01 in - West 2.3 mph - N/A   Clear
4:50 AM 44.6 °F - 37.4 °F 76% 30.01 in - Calm Calm - N/A   Clear
5:20 AM 42.8 °F 41.1 °F 37.4 °F 81% 30.01 in - WNW 3.5 mph - N/A   Clear
5:50 AM 46.4 °F - 39.2 °F 76% 30.01 in - Variable 2.3 mph - N/A   Clear
6:20 AM 44.6 °F 43.1 °F 37.4 °F 76% 30.01 in - West 3.5 mph - N/A   Clear
6:50 AM 50.0 °F - 39.2 °F 66% 30.01 in - West 3.5 mph - N/A   Clear
7:20 AM 53.6 °F - 37.4 °F 54% 30.04 in - West 3.5 mph - N/A   Clear
7:50 AM 55.4 °F - 39.2 °F 54% 30.04 in - WNW 3.5 mph - N/A   Clear
8:20 AM 57.2 °F - 41.0 °F 55% 30.04 in - NW 2.3 mph - N/A   Clear
8:50 AM 60.8 °F - 42.8 °F 52% 30.04 in - SE 3.5 mph - N/A   Clear
9:20 AM 64.4 °F - 41.0 °F 42% 30.04 in - Variable 3.5 mph - N/A   Clear
9:50 AM 66.2 °F - 39.2 °F 37% 30.06 in - NNE 11.5 mph - N/A   Clear
10:20 AM 66.2 °F - 37.4 °F 35% 30.06 in - NNE 13.8 mph - N/A   Clear
10:50 AM 66.2 °F - 35.6 °F 32% 30.06 in - NNE 13.8 mph - N/A   Clear
11:20 AM 66.2 °F - 37.4 °F 35% 30.06 in - NNE 11.5 mph - N/A   Clear
11:50 AM 66.2 °F - 37.4 °F 35% 30.06 in - NNE 9.2 mph - N/A   Clear
12:20 PM 68.0 °F - 37.4 °F 33% 30.06 in - NE 9.2 mph - N/A   Clear
12:50 PM 68.0 °F - 37.4 °F 33% 30.06 in - NE 11.5 mph - N/A   Clear
1:20 PM 69.8 °F - 39.2 °F 33% 30.06 in - NE 12.7 mph - N/A   Clear
1:50 PM 69.8 °F - 39.2 °F 33% 30.06 in - NNE 13.8 mph - N/A   Clear
2:20 PM 69.8 °F - 39.2 °F 33% 30.04 in - NE 13.8 mph - N/A   Clear
2:50 PM 68.0 °F - 37.4 °F 33% 30.04 in - NE 16.1 mph - N/A   Clear
3:20 PM 69.8 °F - 37.4 °F 31% 30.04 in 6.2 mi NE 15.0 mph - N/A   Mostly Cloudy
3:50 PM 69.8 °F - 37.4 °F 31% 30.04 in 6.2 mi NNE 13.8 mph - N/A   Mostly Cloudy
4:20 PM 69.8 °F - 37.4 °F 31% 30.04 in 6.2 mi NNE 13.8 mph - N/A   Mostly Cloudy
4:50 PM 68.0 °F - 39.2 °F 35% 30.04 in 6.2 mi NNE 13.8 mph - N/A   Mostly Cloudy
5:20 PM 69.8 °F - 41.0 °F 35% 30.04 in 6.2 mi NE 12.7 mph - N/A   Scattered Clouds
5:50 PM 68.0 °F - 41.0 °F 37% 30.04 in 6.2 mi NNE 10.4 mph - N/A   Scattered Clouds
6:20 PM 66.2 °F - 41.0 °F 40% 30.04 in 6.2 mi NE 9.2 mph - N/A   Scattered Clouds
6:50 PM 66.2 °F - 42.8 °F 43% 30.04 in 6.2 mi NNE 6.9 mph - N/A   Scattered Clouds
7:20 PM 64.4 °F - 42.8 °F 45% 30.04 in - NNE 6.9 mph - N/A   Clear
7:50 PM 62.6 °F - 42.8 °F 48% 30.04 in - NNE 5.8 mph - N/A   Clear
8:20 PM 60.8 °F - 42.8 °F 52% 30.04 in - NNE 4.6 mph - N/A   Clear
8:50 PM 60.8 °F - 42.8 °F 52% 30.06 in - North 5.8 mph - N/A   Clear
9:20 PM 60.8 °F - 42.8 °F 52% 30.06 in 6.2 mi Variable 2.3 mph - N/A   Partly Cloudy
9:50 PM 60.8 °F - 42.8 °F 52% 30.06 in 6.2 mi Variable 1.2 mph - N/A   Partly Cloudy
10:20 PM 57.2 °F - 42.8 °F 59% 30.06 in 6.2 mi Calm Calm - N/A   Partly Cloudy
10:50 PM 51.8 °F - 41.0 °F 67% 30.06 in 6.2 mi WNW 3.5 mph - N/A   Partly Cloudy
11:20 PM 53.6 °F - 42.8 °F 67% 30.06 in 6.2 mi Variable 2.3 mph - N/A   Partly Cloudy
11:50 PM 51.8 °F - 41.0 °F 67% 30.09 in 6.2 mi SW 2.3 mph - N/A   Partly Cloudy